Tracking 31027 objects as of 19-Jul-2025
HD Live streaming from Space Station
objects crossing your sky now

STARLINK-30101

Track STARLINK-30101 now!
10-day predictions
STARLINK-30101 is classified as:


NORAD ID: 56301
Int'l Code: 2023-056R
Perigee: 565.7 km
Apogee: 566.9 km
Inclination: 43.0 °
Period: 95.8 minutes
Semi major axis: 6937 km
RCS: Unknown
Launch date: April 19, 2023
Source: United States (US)
Launch site: AIR FORCE EASTERN TEST RANGE (AFETR)
Your satellite tracking list
STARLINK-3957
Track 1 satellite(s)




NASA's NSSDC Master Catalog

Two Line Element Set (TLE):
1 56301U 23056R   25199.61941089  .00005682  00000-0  43562-3 0  9999
2 56301  43.0022  42.1426 0000897 255.9967 104.0775 15.02509796124223
Source of the keplerian elements: AFSPC